星链-2693 (STARLINK-2693 )

导读

STARLINK-2693是美国SpaceX公司星链(Starlink)星座的一员,于2021年5月9日发射升空。星链计划旨在构建全球低轨卫星互联网,为偏远地区提供高速低延迟宽带服务,STARLINK-2693的入轨进一步扩充了星座规模,助力实现全球无缝网络覆盖,推动卫星通信技术商业化应用,同时也引发天文观测等领域的相关讨论。

Basic Information
目录编号:
48461
目录名称:
STARLINK-2693
国际标识:
2021-040AK
轨道中心:
EARTH
卫星名称:
星链-2693
卫星全名:
星链-2693 (STARLINK-2693 )
卫星状态:
已陨落 最后检测时间 2025-03-27
发射日期:
2021-05-09 UTC
国别 :
美国 (US)
星等 :
--
Orbit Information
数据来源 国际轨道数据
星历时间: 2025-03-27T20:20:12+0800
轨道信息已过期448天
半长轴: 6564.46km
偏心率: 0.0005801
轨道倾角: 53.032°
近地点辐角 288.262°
升交点赤经 259.088°
平近点角 173.341°
近地点: 182.516km
远地点: 190.134km
周期: 88.218分钟
每日圈数: 16.323164
Detailed Information
固有亮度:
5
最大亮度:
2.5
卫星平台:
Starlink V1.0
覆盖范围:
全球
运营商:
太空探索技术公司
运营商所在国:
美国
制造商(研发单位):
太空探索技术公司
制造商所在国:
美国
使用方式:
暂无
Satellite Introduction
星链(Starlink)计划是由太空探索技术公司(SpaceX)提出的一个巨型低轨卫星互联网星座项目,计划在2019年至2024年间在太空搭建由约1.2万颗卫星组成的“星链”网络,其中1584颗将部署在地球上空550千米处的近地轨道,并从2020年开始工作。该卫星仍在工作。